Simultaneous Nadir Overpasses (SNOs) Predictions

Prediction of SNOs between NOAA-20 and AQUA Satellite Orbit:

Table of predicted SNOs for the next 14.0 days since TLE Epoch: 7/6/2024
Index Date (NOAA-20) Time (NOAA-20) Lat,Lon (NOAA-20) SZA (NOAA-20 ) Date (AQUA) Time (AQUA) Lat,Lon (AQUA) SZA (AQUA ) Distance(km) Time Diff (sec)
1 07/08/2024 04:30:20 -81.28,-142.88 114.18 07/08/2024 04:30:19 -81.28,-142.82 114.19 1.16 1
2 07/10/2024 16:33:31 81.29,-143.66 66.14 07/10/2024 16:33:46 81.28,-143.63 66.13 0.67 15
3 07/10/2024 17:24:14 -81.30, 24.33 113.96 07/10/2024 17:23:08 -81.29, 24.19 113.90 2.52 66
4 07/13/2024 04:36:42 -81.29,-144.27 113.53 07/13/2024 04:37:14 -81.29,-144.36 113.54 1.54 32
5 07/13/2024 05:27:25 81.30, 23.86 66.36 07/13/2024 05:26:34 81.30, 23.69 66.42 3.02 51
6 07/15/2024 16:39:53 81.29,-144.82 66.83 07/15/2024 16:40:39 81.30,-144.93 66.82 1.77 46
7 07/15/2024 17:30:38 -81.29, 22.45 113.16 07/15/2024 17:30:02 -81.29, 22.56 113.16 1.96 36
8 07/18/2024 04:43:05 -81.29,-145.87 112.71 07/18/2024 04:44:06 -81.28,-146.05 112.72 3.14 61



Historial Predications of SNOs between NOAA-20 and AQUA
